DW8673 Jerrabomberra AU current weather conditions

sailwx.info

Wind from 331 at 0 knots gusting 2

Air temperature 8.3° C
Dewpoint 6.0° C

Last reported at 2016-May-25 19:48 UTC.
Time now 2016-May-25 20:46 UTC

Location: S 35°23' E 149°12'.
View on Google Maps.

See reports from other nearby stations

  
Tides and Currents Weather Stations Pressure Air Temp Water Temp Dewpoint Dewpoint Depression Visibility Wind Speed Wind Dir Waves Ship Positions
date/time (UTC)wind fromknots sea level pressurealtimeterstation pressurevisibilityair tempwater tempwave heightnotes
2016-May-25 19:48 331 0 gusting 2 8.3
2016-May-25 19:43 334 1 gusting 5 8.3
2016-May-25 19:38 295 2 gusting 5 8.3
2016-May-25 19:33 322 2 gusting 5 8.3
2016-May-25 19:18 319 1 gusting 6 8.3
2016-May-25 19:13 327 2 gusting 5 8.3
2016-May-25 19:08 326 2 gusting 4 8.3
2016-May-25 19:03 318 1 gusting 5 8.3
2016-May-25 18:48 265 1 gusting 4 8.3
2016-May-25 18:43 336 1 gusting 5 8.3
2016-May-25 18:38 330 2 gusting 7 8.3
2016-May-25 18:33 302 2 gusting 5 8.3
2016-May-25 18:13 311 3 gusting 5 8.3
2016-May-25 18:08 304 1 gusting 6 8.3
2016-May-25 18:03 345 2 gusting 6 8.3
2016-May-25 17:48 326 2 gusting 5 8.3
2016-May-25 17:43 345 1 gusting 4 8.9
2016-May-25 17:38 324 1 gusting 4 8.9
2016-May-25 17:33 337 2 gusting 6 8.9
2016-May-25 17:18 306 2 gusting 5 8.9
2016-May-25 17:13 018 2 gusting 5 8.9
2016-May-25 17:08 027 2 gusting 5 8.9
2016-May-25 17:03 328 2 gusting 5 8.9
2016-May-25 16:48 265 2 gusting 5 8.9
2016-May-25 16:43 359 2 gusting 5 9.4
2016-May-25 16:38 341 2 gusting 5 9.4
2016-May-25 16:33 034 3 gusting 6 9.4
2016-May-25 16:18 311 2 gusting 5 9.4
2016-May-25 16:13 298 1 gusting 5 9.4
2016-May-25 16:08 311 2 gusting 2 9.4
2016-May-25 16:03 347 1 gusting 5 9.4
2016-May-25 15:48 332 2 gusting 5 9.4
2016-May-25 15:43 329 1 gusting 2 9.4
2016-May-25 15:38 324 1 gusting 1 9.4
2016-May-25 15:33 352 0 gusting 2 9.4
2016-May-25 15:18 288 1 gusting 2 9.4
2016-May-25 15:13 344 1 gusting 4 9.4
2016-May-25 15:08 330 1 gusting 1 9.4
2016-May-25 14:48 319 0 gusting 1 9.4
2016-May-25 14:43 058 9.4
2016-May-25 14:38 354 9.4
2016-May-25 14:33 339 0 gusting 2 9.4
2016-May-25 14:13 023 9.4
2016-May-25 14:08 324 0 gusting 1 9.4
2016-May-25 14:03 323 0 gusting 2 9.4
2016-May-25 13:48 294 9.4
2016-May-25 13:43 354 0 gusting 2 9.4
2016-May-25 13:33 345 9.4
2016-May-25 13:18 023 9.4
2016-May-25 13:13 9.4
2016-May-25 13:08 008 9.4
2016-May-25 13:03 147 9.4
2016-May-25 12:48 312 0 gusting 1 9.4
2016-May-25 12:43 293 0 gusting 1 9.4
2016-May-25 12:38 341 0 gusting 1 9.4
2016-May-25 12:33 336 0 gusting 1 9.4
2016-May-25 12:18 275 9.4
2016-May-25 12:13 350 0 gusting 1 9.4
2016-May-25 12:08 311 1 gusting 2 9.4
2016-May-25 12:03 295 1 gusting 5 9.4
2016-May-25 11:43 333 0 gusting 2 9.4
2016-May-25 11:38 337 1 gusting 4 9.4
2016-May-25 11:33 310 0 gusting 4 9.4
2016-May-25 11:18 342 1 gusting 4 10.0
2016-May-25 11:13 279 0 gusting 2 10.0
2016-May-25 10:48 013 1 gusting 2 10.0
2016-May-25 10:43 317 1 gusting 5 10.0
2016-May-25 10:38 343 1 gusting 5 10.0
2016-May-25 10:33 311 2 gusting 6 10.0
2016-May-25 10:18 327 2 gusting 6 10.0
2016-May-25 10:13 303 2 gusting 6 10.0
2016-May-25 10:08 271 4 gusting 6 10.0
2016-May-25 10:03 301 3 gusting 6 10.0
2016-May-25 09:48 305 2 gusting 5 10.0
2016-May-25 09:43 292 2 gusting 5 10.0
2016-May-25 09:38 276 2 gusting 5 10.0
2016-May-25 09:33 341 2 gusting 5 10.0
2016-May-25 09:13 269 1 gusting 5 10.6
2016-May-25 09:03 014 1 gusting 5 10.6
2016-May-25 08:48 009 1 gusting 2 10.6
2016-May-25 08:43 132 1 gusting 4 10.6
2016-May-25 08:38 306 1 gusting 4 10.6
2016-May-25 08:18 358 1 gusting 4 10.6
2016-May-25 08:13 322 2 gusting 5 10.6
2016-May-25 08:08 334 2 gusting 5 10.6
2016-May-25 08:03 004 1 gusting 6 10.6
2016-May-25 07:48 347 2 gusting 6 10.6
2016-May-25 07:43 316 2 gusting 6 11.1
2016-May-25 07:38 297 2 gusting 5 11.1
2016-May-25 07:33 237 3 gusting 6 11.1
2016-May-25 07:18 305 2 gusting 5 11.1
2016-May-25 07:13 314 2 gusting 5 11.1
2016-May-25 07:08 005 2 gusting 4 11.1
2016-May-25 07:03 346 2 gusting 6 11.1
2016-May-25 06:48 313 2 gusting 5 11.7
2016-May-25 06:43 333 2 gusting 6 11.7
2016-May-25 06:38 338 1 gusting 4 11.7
2016-May-25 06:33 330 1 gusting 5 11.7
2016-May-25 06:18 027 1 gusting 2 11.7
2016-May-25 06:13 344 1 gusting 2 11.7
2016-May-25 06:08 287 1 gusting 4 11.7
2016-May-25 06:03 315 1 gusting 6 12.2
2016-May-25 05:48 302 1 gusting 6 12.2
2016-May-25 05:43 005 1 gusting 5 12.2
2016-May-25 05:38 320 2 gusting 5 12.2
2016-May-25 05:33 309 2 gusting 5 12.2
2016-May-25 05:18 334 2 gusting 5 12.8
2016-May-25 05:13 318 2 gusting 5 12.8
2016-May-25 05:08 324 2 gusting 4 12.8
2016-May-25 05:03 328 2 gusting 6 12.8
2016-May-25 04:48 001 4 gusting 6 12.8
2016-May-25 04:43 316 3 gusting 8 13.3
2016-May-25 04:38 347 3 gusting 6 13.3
2016-May-25 04:33 009 4 gusting 7 13.9
2016-May-25 04:18 325 2 gusting 6 14.4
2016-May-25 04:13 315 5 gusting 7 14.4
2016-May-25 04:08 327 4 gusting 7 15.6
2016-May-25 04:03 305 4 gusting 7 16.1
2016-May-25 03:48 280 3 gusting 6 16.1
2016-May-25 03:43 261 4 gusting 6 15.6
2016-May-25 03:38 298 2 gusting 6 16.1
2016-May-25 03:33 327 4 gusting 10 16.1
2016-May-25 03:18 291 2 gusting 4 16.7
2016-May-25 03:08 215 2 gusting 4 16.1
2016-May-25 03:03 324 2 gusting 6 16.1
2016-May-25 02:48 327 2 gusting 5 15.6
2016-May-25 02:43 307 2 gusting 5 15.6
2016-May-25 02:38 287 2 gusting 6 15.6
2016-May-25 02:33 333 2 gusting 6 15.6
2016-May-25 02:18 300 4 gusting 6 15.0
2016-May-25 02:13 287 2 gusting 6 15.0
2016-May-25 02:08 297 2 gusting 4 15.0
2016-May-25 02:03 286 0 gusting 2 15.0
2016-May-25 01:48 335 2 gusting 4 14.4
2016-May-25 01:43 315 2 gusting 5 14.4
2016-May-25 01:38 289 1 gusting 4 14.4
2016-May-25 01:33 248 1 gusting 2 15.0
2016-May-25 01:18 095 0 gusting 1 13.9
2016-May-25 01:13 109 0 gusting 4 13.9
2016-May-25 01:08 300 1 gusting 4 13.9
2016-May-25 01:03 246 1 gusting 2 13.9
2016-May-25 00:48 192 0 gusting 2 12.8
2016-May-25 00:43 265 1 gusting 4 12.8
2016-May-25 00:38 276 1 gusting 2 12.8
2016-May-25 00:33 248 1 gusting 4 12.2
2016-May-25 00:18 253 0 gusting 2 11.1
2016-May-25 00:13 290 1 gusting 4 10.6
2016-May-25 00:03 293 1 gusting 4 11.1
2016-May-24 23:48 325 0 gusting 0 10.6
2016-May-24 23:43 025 1 gusting 2 10.6
2016-May-24 23:38 328 1 gusting 2 10.6
2016-May-24 23:33 215 1 gusting 2 9.4
2016-May-24 23:18 118 0 gusting 1 8.3
2016-May-24 23:13 113 0 gusting 1 8.3
2016-May-24 23:03 062 0 gusting 0 7.8
2016-May-24 22:48 205 6.7
2016-May-24 22:38 248 1 gusting 1 6.1
2016-May-24 22:33 270 6.1
2016-May-24 22:18 270 4.4
2016-May-24 22:13 204 4.4
2016-May-24 22:08 211 4.4
2016-May-24 22:03 257 0 gusting 1 3.9
2016-May-24 21:48 270 3.3
2016-May-24 21:43 269 2.8
2016-May-24 21:38 225 2.8
2016-May-24 21:33 204 2.2
2016-May-24 21:18 270 1.7
2016-May-24 21:13 112 1.1
2016-May-24 21:08 112 1.1
2016-May-24 21:03 205 0 gusting 0 0.6
2016-May-24 20:48 090 0.6
2016-May-24 20:43 337 0.6
2016-May-24 20:38 252 0.6
2016-May-24 20:33 204 0.6
2016-May-24 20:18 225 0.6
2016-May-24 20:13 248 0.6
2016-May-24 20:08 135 0.6
2016-May-24 20:03 158 0.6
2016-May-24 19:38 202 1.1
2016-May-24 19:33 153 1.1
2016-May-24 19:18 112 1.1
2016-May-24 19:03 135 1.1
2016-May-24 18:48 135 1.1
2016-May-24 18:43 090 1.1
2016-May-24 18:38 091 1.1
2016-May-24 18:33 090 1.1
2016-May-24 18:13 090 1.1
2016-May-24 18:08 112 1.1
2016-May-24 18:03 151 1.1
2016-May-24 17:48 112 1.7
2016-May-24 17:43 089 1.7
2016-May-24 17:38 135 1.7
2016-May-24 17:33 112 1.7
2016-May-24 17:18 202 1.7
2016-May-24 17:13 227 2.2
2016-May-24 17:08 045 2.2
2016-May-24 17:03 112 2.2
2016-May-24 16:48 112 2.8
2016-May-24 16:43 112 2.8
2016-May-24 16:33 161 0 gusting 1 2.8
2016-May-24 16:18 135 2.8
2016-May-24 16:13 220 3.3
2016-May-24 16:03 142 3.3
2016-May-24 15:48 092 3.3
2016-May-24 15:43 100 3.3
2016-May-24 15:38 112 3.9
2016-May-24 15:33 247 3.9
2016-May-24 15:18 224 0 gusting 1 3.9
2016-May-24 15:08 115 4.4
2016-May-24 15:03 188 0 gusting 1 4.4
2016-May-24 14:48 112 5.6
2016-May-24 14:43 123 5.6
2016-May-24 14:38 131 5.6
2016-May-24 14:33 009 0 gusting 2 5.6
2016-May-24 14:13 280 0 gusting 1 5.6
2016-May-24 14:03 068 0 gusting 1 5.6
2016-May-24 13:43 125 5.6
2016-May-24 13:38 112 0 gusting 1 5.6
2016-May-24 13:33 080 5.6
2016-May-24 13:18 069 0 gusting 0 6.1
2016-May-24 13:13 102 0 gusting 0 6.1
2016-May-24 13:08 082 0 gusting 1 6.1
2016-May-24 13:03 105 0 gusting 1 6.1
2016-May-24 12:48 087 0 gusting 1 6.1
2016-May-24 12:43 358 0 gusting 1 6.7
2016-May-24 12:38 086 0 gusting 1 6.7
2016-May-24 12:33 081 0 gusting 1 6.7
2016-May-24 12:18 087 0 gusting 1 6.7
2016-May-24 12:03 102 0 gusting 1 6.7
2016-May-24 11:48 098 0 gusting 0 6.7
2016-May-24 11:43 089 0 gusting 1 6.7
2016-May-24 11:38 080 0 gusting 1 6.7
2016-May-24 11:33 093 0 gusting 1 6.7
2016-May-24 11:13 075 7.2
2016-May-24 11:08 099 0 gusting 1 7.2
2016-May-24 10:48 089 0 gusting 0 6.7
2016-May-24 10:43 096 0 gusting 0 6.7
2016-May-24 10:33 124 7.2
2016-May-24 10:18 121 7.8
2016-May-24 10:13 083 7.8
2016-May-24 10:08 123 7.8
2016-May-24 09:48 097 0 gusting 2 8.3
2016-May-24 09:43 098 0 gusting 1 8.9
2016-May-24 09:38 097 0 gusting 1 8.9
2016-May-24 09:33 084 0 gusting 1 8.9
2016-May-24 09:13 059 0 gusting 1 9.4
2016-May-24 09:08 105 1 gusting 1 9.4
2016-May-24 09:03 059 0 gusting 1 9.4
2016-May-24 08:48 136 0 gusting 1 9.4
2016-May-24 08:43 122 0 gusting 1 9.4
2016-May-24 08:38 101 1 gusting 1 9.4
2016-May-24 08:18 090 0 gusting 1 9.4
2016-May-24 08:13 284 1 gusting 2 10.0
2016-May-24 08:08 290 2 gusting 4 10.0
2016-May-24 08:03 295 2 gusting 6 10.0
2016-May-24 07:43 317 2 gusting 5 10.6
2016-May-24 07:38 309 2 gusting 4 10.6
2016-May-24 07:33 339 1 gusting 5 11.1
2016-May-24 07:18 335 1 gusting 2 11.7
2016-May-24 07:13 338 1 gusting 2 12.2
2016-May-24 07:08 047 0 gusting 2 12.8
2016-May-24 07:03 118 0 gusting 2 13.3
2016-May-24 06:48 270 1 gusting 4 15.6
2016-May-24 06:43 172 16.7
2016-May-24 06:38 279 0 gusting 1 16.7
2016-May-24 06:33 284 1 gusting 6 16.1
2016-May-24 06:18 261 5 gusting 7 16.1
2016-May-24 06:13 264 5 gusting 8 16.1
2016-May-24 06:03 268 4 gusting 10 16.7
2016-May-24 05:48 274 5 gusting 7 17.2
2016-May-24 05:43 313 4 gusting 10 17.8
2016-May-24 05:38 251 4 gusting 10 18.3
2016-May-24 05:33 255 4 gusting 8 18.3
2016-May-24 05:18 277 6 gusting 12 18.3
2016-May-24 05:13 244 5 gusting 8 18.9
2016-May-24 05:03 253 6 gusting 10 18.9
2016-May-24 04:48 249 6 gusting 11 18.9
2016-May-24 04:43 250 6 gusting 11 19.4
2016-May-24 04:38 227 4 gusting 7 19.4
2016-May-24 04:33 272 6 gusting 13 19.4
2016-May-24 04:13 249 6 gusting 10 19.4
2016-May-24 04:08 246 5 gusting 10 19.4
2016-May-24 04:03 263 5 gusting 11 19.4
2016-May-24 03:48 257 7 gusting 12 18.9
2016-May-24 03:43 256 6 gusting 10 19.4
2016-May-24 03:38 243 5 gusting 12 19.4
2016-May-24 03:33 259 6 gusting 10 18.9
2016-May-24 03:18 260 5 gusting 8 18.3
2016-May-24 03:13 230 5 gusting 11 18.3
2016-May-24 03:08 264 3 gusting 6 18.3
2016-May-24 03:03 307 3 gusting 8 17.8
2016-May-24 02:48 317 4 gusting 6 17.2
2016-May-24 02:38 304 4 gusting 6 17.2
2016-May-24 02:13 325 6 gusting 10 16.1
2016-May-24 02:08 288 5 gusting 7 16.1
2016-May-24 02:03 302 5 gusting 10 16.7
2016-May-24 01:48 304 5 gusting 8 16.1
2016-May-24 01:38 295 5 gusting 11 16.1
2016-May-24 01:33 294 5 gusting 10 16.1
2016-May-24 01:13 320 3 gusting 7 16.1
2016-May-24 01:08 311 3 gusting 6 16.1
2016-May-24 01:03 296 4 gusting 8 15.6
2016-May-24 00:48 307 2 gusting 6 15.6
2016-May-24 00:43 281 4 gusting 8 15.6
2016-May-24 00:38 308 3 gusting 6 15.6
2016-May-24 00:18 241 2 gusting 5 15.0
2016-May-24 00:08 293 1 gusting 5 15.0
2016-May-23 23:48 272 2 gusting 5 13.3
2016-May-23 23:43 062 3 gusting 7 13.3
2016-May-23 23:38 287 3 gusting 6 13.3
2016-May-23 23:33 265 2 gusting 6 13.3
2016-May-23 23:18 293 2 gusting 5 12.2
2016-May-23 23:08 291 4 gusting 6 12.2
2016-May-23 23:03 282 2 gusting 5 11.7
2016-May-23 22:43 030 0 gusting 2 9.4
2016-May-23 22:38 314 1 gusting 2 9.4
2016-May-23 22:33 184 1 gusting 6 8.9
2016-May-23 22:18 348 1 gusting 5 8.3
2016-May-23 22:13 341 1 gusting 2 7.8
2016-May-23 22:08 297 1 gusting 4 7.8
2016-May-23 22:03 026 0 gusting 2 7.2
2016-May-23 21:48 024 0 gusting 2 6.7
2016-May-23 21:43 055 0 gusting 2 6.7
2016-May-23 21:38 049 0 gusting 2 6.7
2016-May-23 21:33 310 0 gusting 4 6.7
2016-May-23 21:13 349 6.1
2016-May-23 21:03 356 5.6
2016-May-23 20:48 020 0 gusting 1 5.6
2016-May-23 20:43 107 0 gusting 0 5.6
2016-May-23 20:38 246 0 gusting 1 5.6
2016-May-23 20:33 083 5.6
2016-May-23 20:18 087 0 gusting 1 5.6
2016-May-23 20:08 112 6.1
2016-May-23 20:03 091 0 gusting 1 6.1